Location: Newark
(43.0072°N, 73.8511°W)
Time: 09:40:29
(UTC+00:00)

Envisat - Visible Passes

Search period start: 28 January 2020 00:00
Search period end: 07 February 2020 00:00
Orbit: 764 x 766 km, 98.1° (Epoch: 28 January)

Date Brightness Start Highest point End Pass type
(mag) Time Alt. Az. Time Alt. Az. Time Alt. Az.
28 Jan 4.6 11:03:32 10° NNE 11:08:16 38° E 11:12:59 10° SSE visible
28 Jan 5.8 23:59:36 10° SW 00:03:05 18° W 00:06:35 10° NW visible
29 Jan 6.0 10:27:49 10° NE 10:31:12 18° E 10:34:34 10° SE visible
29 Jan 4.5 23:21:17 10° SSW 23:26:01 40° W 23:30:48 10° NNW visible
30 Jan 3.5 11:28:46 10° NNE 11:33:51 67° ESE 11:38:53 10° S visible
30 Jan 3.1 22:44:04 10° SSE 22:49:09 87° WSW 22:54:17 10° NNW visible
31 Jan 6.5 00:28:48 10° W 00:28:54 10° W 00:29:00 10° W visible
31 Jan 5.1 10:52:26 10° NE 10:56:55 30° E 11:01:21 10° SSE visible
31 Jan 5.5 23:47:42 10° SW 23:51:41 23° W 23:55:42 10° NW visible
01 Feb 6.2 10:17:11 10° ENE 10:19:47 14° E 10:22:21 10° ESE visible
01 Feb 4.0 23:09:46 10° S 23:14:41 50° W 23:19:38 10° NNW visible
02 Feb 4.0 11:17:33 10° NNE 11:22:32 52° E 11:27:28 10° S visible
02 Feb 3.0 22:32:49 10° SSE 22:37:52 75° ENE 22:42:58 10° N visible
03 Feb 6.3 00:15:05 10° WSW 00:17:27 13° W 00:19:50 10° WNW visible
03 Feb 5.5 10:41:25 10° NE 10:45:31 24° E 10:49:36 10° SSE visible
03 Feb 5.1 23:35:56 10° SSW 23:40:18 29° W 23:44:42 10° NW visible
04 Feb 6.5 10:07:14 10° ENE 10:08:20 11° E 10:09:26 10° E visible
04 Feb 3.6 22:58:19 10° S 23:03:21 64° W 23:08:25 10° NNW visible
05 Feb 4.5 11:06:22 10° NNE 11:11:11 41° E 11:15:58 10° SSE visible
06 Feb 6.0 00:02:48 10° SW 00:06:01 17° W 00:09:16 10° NW visible
06 Feb 5.9 10:30:31 10° NE 10:34:08 19° E 10:37:44 10° SE visible
06 Feb 4.7 23:24:16 10° SSW 23:28:56 36° W 23:33:37 10° NNW visible
